Cairo, Egypt

11:15 AM EET on March 27, 2017 (GMT +0200)
Cairo International

Weather History for HECA - May, 2013

Change the Weather History Date:

Sunday, May 5, 2013

  Actual Average Record
Temperature  
Mean Temperature 80 °F -  
Max Temperature 94 °F 88 °F 102 °F (1998)
Min Temperature 67 °F 65 °F 35 °F (2000)
Cooling Degree Days 16    
Growing Degree Days 30 (Base 50)    
Moisture  
Dew Point 49 °F    
Average Humidity 39    
Maximum Humidity 78    
Minimum Humidity 7    
Precipitation  
Precipitation 0.00 in 0.00 in - ()
Sea Level Pressure  
Sea Level Pressure 29.89 in    
Wind  
Wind Speed 9 mph ()    
Max Wind Speed 16 mph    
Max Gust Speed -    
Visibility 3.6 miles    
Events      
Averages and records for this station are not official NWS values.
T = Trace of Precipitation, MM = Missing Value Source: Averaged Metar Reports

Daily Weather History Graph

Daily Weather History Graph

Search for Another Location

Airport or City:

Trip Planner

Search our weather history database for the weather conditions in past years. The results will help you decide how hot, cold, wet, or windy it might be!

Date:

Astronomy

May. 05, 2013 Rise Set
Actual Time 5:08 AM EET 6:34 PM EET
Civil Twilight 4:42 AM EET 7:00 PM EET
Nautical Twilight 4:11 AM EET 7:30 PM EET
Astronomical Twilight 3:39 AM EET 8:02 PM EET
Moon 2:08 AM EET (5/5) 2:30 PM EET (5/5)
Length of Visible Light 14h 17m
Length of Day
13h 26m
Waning Crescent, 20% of the Moon is Illuminated
May 5
Waning Crescent
May 10
New
May 18
First Quarter
May 25
Full
May 31
Last Quarter

Hourly Weather History & Observations

Time (EET) Temp. Heat Index Dew Point Humidity Pressure Visibility Wind Dir Wind Speed Gust Speed Precip Events Conditions
12:00 AM 75.2 °F - 46.4 °F 36% 29.89 in - NNE 9.2 mph - N/A   Clear
12:30 AM 73.4 °F - 50.0 °F 44% 29.89 in - NNE 9.2 mph - N/A   Clear
1:00 AM 71.6 °F - 51.8 °F 50% 29.89 in - NE 8.1 mph - N/A   Clear
1:30 AM 71.6 °F - 51.8 °F 50% 29.89 in - NE 8.1 mph - N/A   Clear
2:00 AM 71 °F - 55 °F 46% 29.88 in 6 mi NNE 9.2 mph - -  
2:00 AM 71.6 °F - 55.4 °F 57% 29.86 in - NNE 9.2 mph - N/A   Clear
2:30 AM 71.6 °F - 55.4 °F 57% 29.86 in - NNE 9.2 mph - N/A   Clear
3:00 AM 69.8 °F - 59.0 °F 68% 29.86 in - North 8.1 mph - N/A   Clear
3:30 AM 68.0 °F - 59.0 °F 73% 29.86 in 3.7 mi NNE 4.6 mph - N/A   Unknown
4:00 AM 68.0 °F - 57.2 °F 68% 29.86 in 2.5 mi ENE 6.9 mph - N/A   Mist
4:30 AM 68.0 °F - 57.2 °F 68% 29.86 in 2.5 mi ENE 6.9 mph - N/A   Mist
5:00 AM 68.0 °F - 59.0 °F 73% 29.86 in 2.5 mi East 8.1 mph - N/A   Mist
5:30 AM 68.0 °F - 60.8 °F 78% 29.89 in 2.5 mi East 9.2 mph - N/A   Mist
6:00 AM 68.0 °F - 60.8 °F 78% 29.89 in 2.5 mi East 6.9 mph - N/A   Mist
6:30 AM 69.8 °F - 59.0 °F 68% 29.89 in 2.5 mi ENE 5.8 mph - N/A   Mist
7:00 AM 69.8 °F - 59.0 °F 68% 29.89 in 2.5 mi NE 6.9 mph - N/A   Mist
7:30 AM 71.6 °F - 60.8 °F 69% 29.92 in 2.5 mi NE 6.9 mph - N/A   Mist
8:00 AM 72 °F - 60 °F 56% 29.91 in 4 mi NE 8.1 mph - -   Haze
8:00 AM 73.4 °F - 59.0 °F 61% 29.92 in 3.7 mi NE 8.1 mph - N/A   Unknown
8:30 AM 77.0 °F - 57.2 °F 50% 29.92 in 3.7 mi NE 10.4 mph - N/A   Unknown
9:00 AM 78.8 °F - 53.6 °F 42% 29.92 in 3.7 mi NNE 10.4 mph - N/A   Unknown
9:30 AM 80.6 °F 80.3 °F 53.6 °F 39% 29.92 in 3.7 mi North 9.2 mph - N/A   Unknown
10:00 AM 82.4 °F - 51.8 °F 35% 29.92 in 3.7 mi North 9.2 mph - N/A   Unknown
10:30 AM 86.0 °F - 46.4 °F 25% 29.92 in - North 9.2 mph - N/A   Clear
11:00 AM 87.8 °F - 46.4 °F 24% 29.92 in - North 10.4 mph - N/A   Clear
11:30 AM 87.8 °F - 46.4 °F 24% 29.92 in - North 10.4 mph - N/A   Clear
12:00 PM 89.6 °F - 41.0 °F 18% 29.89 in - NNE 12.7 mph - N/A   Clear
12:30 PM 91.4 °F - 41.0 °F 17% 29.89 in - NE 9.2 mph - N/A   Clear
1:00 PM 91.4 °F - 39.2 °F 16% 29.86 in - NNW 10.4 mph - N/A   Clear
1:30 PM 93.2 °F - 35.6 °F 13% 29.86 in - NNE 15.0 mph - N/A   Clear
2:00 PM 95 °F - 38 °F 7% 29.84 in 6 mi North 11.5 mph - -  
2:00 PM 95.0 °F - 37.4 °F 13% 29.86 in - North 11.5 mph - N/A   Clear
2:30 PM 93.2 °F - 35.6 °F 13% 29.86 in - NW 6.9 mph - N/A   Clear
3:00 PM 93.2 °F - 41.0 °F 16% 29.86 in - North 11.5 mph - N/A   Clear
3:30 PM 93.2 °F - 41.0 °F 16% 29.83 in - NNE 13.8 mph - N/A   Clear
4:00 PM 93.2 °F - 42.8 °F 17% 29.83 in - North 15.0 mph - N/A   Clear
4:30 PM 93.2 °F - 44.6 °F 19% 29.83 in - North 16.1 mph - N/A   Clear
5:00 PM 93.2 °F - 46.4 °F 20% 29.83 in - North 15.0 mph - N/A   Clear
5:30 PM 91.4 °F - 44.6 °F 20% 29.83 in - North 12.7 mph - N/A   Clear
6:00 PM 89.6 °F - 46.4 °F 22% 29.86 in - North 16.1 mph - N/A   Clear
6:30 PM 87.8 °F - 44.6 °F 22% 29.86 in - North 15.0 mph - N/A   Clear
7:00 PM 86.0 °F - 42.8 °F 22% 29.89 in - North 15.0 mph - N/A   Clear
7:30 PM 86.0 °F - 42.8 °F 22% 29.89 in - North 15.0 mph - N/A   Clear
8:00 PM 85 °F - - % 29.88 in 6 mi North 13.8 mph - -  
8:00 PM 84.2 °F - 44.6 °F 25% 29.89 in - North 13.8 mph - N/A   Clear
8:30 PM 82.4 °F - 48.2 °F 30% 29.92 in - North 10.4 mph - N/A   Clear
9:00 PM 80.6 °F - 46.4 °F 30% 29.92 in - NE 12.7 mph - N/A   Clear
9:30 PM 78.8 °F - 48.2 °F 34% 29.92 in - NE 12.7 mph - N/A   Clear
10:00 PM 77.0 °F - 50.0 °F 39% 29.92 in - NE 10.4 mph - N/A   Clear
10:30 PM 77.0 °F - 50.0 °F 39% 29.92 in - NE 10.4 mph - N/A   Clear
11:00 PM 75.2 °F - 50.0 °F 41% 29.95 in - NE 10.4 mph - N/A   Clear
11:30 PM 75.2 °F - 50.0 °F 41% 29.95 in - NE 10.4 mph - N/A   Clear